Location: Newark
(51.3318°N, 0.0053°E)
Time: 06:40:10
(UTC+00:00)

M-CUBED/EXP-1 PRIME - Pass Details

Date: 03 July 2022
Orbit: 422 x 631 km, 101.7° (Epoch: 15 August)

Event Time Altitude Azimuth Distance (km) Brightness Sun altitude
Exits shadow 01:19:50 27° 189° (S) 877 ? -13.9°
Maximum altitude 01:21:20 51° 253° (WSW) 565 ? -13.8°
Drops below altitude 10° 01:24:47 - 331° (NNW) 1,653 ? -13.6°
Sets 01:26:50 0° 336° (NNW) 2,528 ? -13.5°
